[Date Prev][Date Next][Thread Prev][Thread Next] - [Date Index][Thread Index][Author Index]
2 Line ISS Keps 10-24
- Subject: [sarex] 2 Line ISS Keps 10-24
- From: "Dave Larsen PhD" <doc@xxxxxxxxxxx>
- Date: Mon, 24 Oct 2005 05:32:16 -0700
ISS
1 25544U 98067A 05296.92319169 +.00016802 +00000-0 +11825-3 0 06109
2 25544 051.6446 321.2774 0001101 086.8301 348.5690 15.74259533395942
----
Via the sarex mailing list at AMSAT.ORG courtesy of AMSAT-NA.
To unsubscribe, send "unsubscribe sarex" to Majordomo@amsat.org
AMSAT Home